Location: Cuzcurrita-R�o Tir�n
(42.5415°N, 2.9642°W)
Time: 21:09:16
(UTC+00:00)

Cosmos 1503 Rocket - Pass Details

Date: 17 January 2021
Orbit: 752 x 791 km, 74.0° (Epoch: 02 March)

Event Time Altitude Azimuth Distance (km) Brightness Sun altitude
Rises 17:59:01 0° 202° (SSW) 3,256 7.9 -9.7°
Reaches altitude 10° 18:01:24 10° 203° (SSW) 2,337 7.1 -10.1°
Maximum altitude 18:06:43 79° 290° (WNW) 809 4.2 -11.0°
Drops below altitude 10° 18:12:07 10° 18° (NNE) 2,364 6.2 -12.0°
Enters shadow 18:14:31 - 19° (NNE) 3,293 6.9 -12.4°
